[[{"header":{"parameterUnit":"m.s-1","parameterCategory":1,"la1":30.2991,"la2":30.254,"lo1":-89.0895,"lo2":-89.0444,"dy":0.0017,"dx":0.0017,"nx":28,"ny":28,"refTime":"2025-01-04T09:00:00:Z","depth":0,"parameterNumber":2,"parameterNumberName":"U-component_of_WINDS"},"data":[0,0,0,0,0,0,0,0,0,0,0,0,0,0,0,0,0,0,0,0,0,0,0,0,0,0,0,0,0,0,0,0,0,0,0,0,0,0,0,0,0,0,0,0,0,0,0,0,0,0,0,0,0,0,0,0,0,0,-4.5997,-4.5998,0,-4.6113,-4.6114,-4.6115,-4.615,-4.6149,-4.6149,-4.6148,-4.6264,-4.6268,-4.6272,0,0,0,0,0,0,0,0,0,0,0,0,0,-4.5802,-4.5806,-4.5996,-4.5998,-4.5999,-4.6112,-4.6114,-4.6116,-4.615,-4.6149,-4.6149,-4.6148,-4.6263,-4.6267,-4.6272,0,0,0,0,0,0,0,0,0,0,0,0,0,-4.5899,-4.5807,-4.5996,-4.603,-4.6035,-4.6112,-4.6114,-4.6116,-4.615,-4.6149,-4.6148,-4.6148,-4.6262,-4.6267,-4.6272,-4.6324,0,0,-4.6289,-4.6291,0,0,0,0,0,0,0,0,-4.5894,-4.5906,-4.6024,-4.6028,-4.6033,-4.6116,-4.6088,-4.6185,-4.615,-4.6106,-4.6148,-4.6147,-4.6216,-4.6225,-4.6248,-4.6329,-4.6334,-4.629,-4.6293,-4.6295,-4.6297,0,0,0,0,0,0,0,-4.5887,-4.5902,-4.6042,-4.6025,-4.6031,-4.6039,-4.6052,-4.6107,-4.6164,-4.611,-4.6113,-4.6126,-4.6218,-4.6243,-4.6251,-4.6336,-4.6289,-4.6294,-4.6298,-4.63,-4.6464,-4.6465,0,0,0,0,0,0,-4.5875,-4.5896,-4.6039,-4.6046,-4.596,-4.6043,-4.6058,-4.609,-4.6164,-4.6174,-4.6127,-4.6127,-4.6234,-4.6245,-4.6256,-4.632,-4.6295,-4.63,-4.6303,-4.6463,-4.6464,-4.6465,0,0,0,0,0,0,-4.5871,-4.5887,-4.6034,-4.5972,-4.5991,-4.6048,-4.6084,-4.6093,-4.6118,-4.6177,-4.6187,-4.6142,-4.6234,-4.6248,-4.6306,-4.6324,-4.6303,-4.6308,-4.6461,-4.6463,-4.6464,-4.6448,0,0,0,0,0,0,-4.5865,-4.5886,-4.5906,-4.5972,-4.5994,-4.6083,-4.6085,-4.6096,-4.6128,-4.613,-4.6194,-4.6203,-4.6234,-4.6298,-4.6312,-4.6331,-4.6312,-4.646,-4.6462,-4.6464,-4.6447,-4.6449,-4.645,0,0,0,0,0,-4.5858,-4.5896,-4.5907,-4.5924,-4.6021,-4.6084,-4.6097,-4.6133,-4.6129,-4.615,-4.6187,-4.6201,-4.632,-4.6304,-4.632,-4.6341,-4.6459,-4.6461,-4.6464,-4.6447,-4.6449,-4.645,0,0,0,0,0,0,-4.583,-4.5906,-4.5918,-4.5979,-4.6025,-4.609,-4.6117,-4.6134,-4.6181,-4.6181,-4.6222,-4.6236,-4.6292,-4.6322,-4.6303,-4.6394,-4.639,-4.6396,-4.6372,-4.6374,-4.6376,-4.6366,-4.6317,0,0,0,0,0,-4.5831,-4.5877,-4.5941,-4.5988,-4.6011,-4.606,-4.6089,-4.6113,-4.6162,-4.6181,-4.6223,-4.6269,-4.6317,-4.6347,-4.6395,-4.6453,-4.6466,-4.6475,-4.6476,-4.6477,-4.6481,-4.6513,-4.6518,-4.6473,-4.6473,-4.6473,0,0,-4.5834,-4.5881,-4.5907,-4.5984,-4.6022,-4.6068,-4.6076,-4.6124,-4.6158,-4.6188,-4.6246,-4.6278,-4.6333,-4.6391,-4.6419,-4.6418,-4.6497,-4.6481,-4.6481,-4.6484,-4.6516,-4.6521,-4.6524,-4.6475,-4.6474,-4.6474,0,0,-4.5861,-4.5902,-4.5946,-4.5985,-4.6043,-4.6076,-4.6086,-4.6149,-4.6172,-4.6231,-4.6254,-4.6295,-4.6377,-4.6414,-4.6444,-4.6487,-4.6501,-4.6501,-4.6509,-4.6539,-4.6543,-4.6546,-4.656,-4.6565,-4.6505,-4.6505,-4.6505,0,-4.5856,-4.5927,-4.5966,-4.6014,-4.6046,-4.6076,-4.6121,-4.6156,-4.6226,-4.6248,-4.6247,-4.635,-4.6389,-4.6456,-4.6466,-4.649,-4.6503,-4.6493,-4.6539,-4.6543,-4.6547,-4.6561,-4.6566,-4.6505,-4.6505,-4.6505,-4.6505,0,-4.5918,-4.5967,-4.5995,-4.6063,-4.61,-4.6145,-4.619,-4.6222,-4.6243,-4.6275,-4.6334,-4.6382,-4.6439,-4.6458,-4.6478,-4.6528,-4.6525,-4.6531,-4.6528,-4.655,-4.6563,-4.6569,-4.6504,-4.6504,-4.6504,-4.6504,0,0,-4.593,-4.602,-4.6029,-4.6061,-4.6128,-4.6166,-4.6212,-4.6269,-4.6295,-4.6343,-4.6382,-4.6451,-4.6458,-4.6491,-4.6516,-4.6544,-4.6573,-4.6547,-4.6548,-4.6549,-4.663,-4.6623,-4.6629,-4.6584,-4.6585,-4.6586,-4.6625,0,-4.5965,-4.605,-4.6087,-4.6155,-4.62,-4.623,-4.627,-4.6315,-4.6347,-4.6389,-4.6424,-4.6472,-4.6477,-4.6498,-4.6526,-4.6563,-4.659,-4.6561,-4.662,-4.6621,-4.6603,-4.6637,-4.663,-4.6664,-4.663,-4.6631,-4.6632,0,-4.6017,-4.6066,-4.6138,-4.62,-4.622,-4.6256,-4.6311,-4.6352,-4.6403,-4.6424,-4.6462,-4.6486,-4.6536,-4.653,-4.6598,-4.6578,-4.6605,-4.6627,-4.6629,-4.6634,-4.6627,-4.6641,-4.6676,-4.6681,-4.6641,-4.664,-4.664,0,-4.6017,-4.6101,-4.6155,-4.6181,-4.6254,-4.6279,-4.631,-4.6361,-4.6393,-4.6441,-4.6462,-4.6515,-4.6544,-4.6584,-4.6621,-4.6614,-4.6685,-4.6683,-4.6703,-4.6702,-4.6715,-4.6714,-4.6753,-4.6735,-4.6735,-4.6735,-4.6734,0,-4.6051,-4.6094,-4.6156,-4.6189,-4.6238,-4.6279,-4.6326,-4.636,-4.6405,-4.6445,-4.6474,-4.651,-4.6558,-4.6601,-4.663,-4.6682,-4.6695,-4.6712,-4.6719,-4.6709,-4.6706,-4.6725,-4.6723,-4.6736,-4.6736,-4.6735,-4.6735,0,-4.6058,-4.6102,-4.6162,-4.6227,-4.6245,-4.6278,-4.6333,-4.6366,-4.64,-4.6449,-4.6463,-4.6516,-4.6567,-4.6609,-4.6676,-4.6696,-4.675,-4.6758,-4.6732,-4.6735,-4.6753,-4.675,-4.6805,-4.6814,-4.679,-4.679,-4.679,0,-4.6077,-4.611,-4.6179,-4.6208,-4.624,-4.6286,-4.6319,-4.6362,-4.6394,-4.6456,-4.6481,-4.6535,-4.658,-4.6661,-4.6705,-4.6756,-4.6765,-4.6781,-4.6773,-4.6762,-4.6764,-4.6761,-4.6764,-4.6781,-4.6781,-4.6781,-4.6781,0,-4.6104,-4.6124,-4.6171,-4.6225,-4.6263,-4.6308,-4.6353,-4.6375,-4.6426,-4.6461,-4.6515,-4.655,-4.6619,-4.6671,-4.6728,-4.6759,-4.6778,-4.6784,-4.6791,-4.678,-4.6763,-4.6771,-4.6733,-4.6782,-4.6782,-4.6782,-4.6782,-4.6782,-4.6117,-4.6148,-4.6201,-4.6252,-4.6291,-4.6332,-4.6366,-4.6405,-4.645,-4.651,-4.6533,-4.6587,-4.6638,-4.6716,-4.6748,-4.6791,-4.6792,-4.6803,-4.6806,-4.6807,-4.6805,-4.6757,-4.6801,-4.6801,-4.6801,-4.6801,-4.6801,0,-4.6145,-4.6181,-4.6227,-4.629,-4.633,-4.6346,-4.6397,-4.6428,-4.6476,-4.6523,-4.6567,-4.6628,-4.6679,-4.6727,-4.6781,-4.6806,-4.6816,-4.6818,-4.6816,-4.6823,-4.6801,-4.6789,-4.6809,-4.6809,-4.6809,-4.6809,-4.6809,-4.6809,-4.6164,-4.6217,-4.6243,-4.6316,-4.6352,-4.6406,-4.6433,-4.6472,-4.6509,-4.6576,-4.6619,-4.6651,-4.6698,-4.6755,-4.6803,-4.6815,-4.6833,-4.6833,-4.6848,-4.6826,-4.6825,-4.6823,-4.6812,-4.6837,-4.6837,-4.6866,-4.6867,-4.6867]},{"header":{"parameterUnit":"m.s-1","parameterCategory":1,"la1":30.2991,"la2":30.254,"lo1":-89.0895,"lo2":-89.0444,"dy":0.0017,"dx":0.0017,"nx":28,"ny":28,"refTime":"2025-01-04T09:00:00:Z","depth":0,"parameterNumber":3,"parameterNumberName":"V-component_of_WINDS"},"data":[0,0,0,0,0,0,0,0,0,0,0,0,0,0,0,0,0,0,0,0,0,0,0,0,0,0,0,0,0,0,0,0,0,0,0,0,0,0,0,0,0,0,0,0,0,0,0,0,0,0,0,0,0,0,0,0,0,0,4.268,4.2681,0,4.2793,4.2794,4.2796,4.2799,4.2797,4.2796,4.2795,4.2911,4.2915,4.292,0,0,0,0,0,0,0,0,0,0,0,0,0,4.2469,4.2473,4.268,4.2681,4.2683,4.2793,4.2795,4.2796,4.2799,4.2797,4.2796,4.2794,4.2909,4.2915,4.292,0,0,0,0,0,0,0,0,0,0,0,0,0,4.2569,4.2474,4.2679,4.2697,4.27,4.2793,4.2795,4.2796,4.2799,4.2797,4.2795,4.2793,4.2908,4.2914,4.2921,4.3003,0,0,4.2941,4.2944,0,0,0,0,0,0,0,0,4.2563,4.2577,4.2693,4.2696,4.27,4.278,4.2763,4.2866,4.28,4.2762,4.2795,4.2792,4.2869,4.2879,4.2904,4.3008,4.3013,4.2941,4.2945,4.2948,4.295,0,0,0,0,0,0,0,4.2557,4.2572,4.2725,4.2695,4.2699,4.2701,4.2713,4.2782,4.2826,4.2765,4.2765,4.2779,4.287,4.2898,4.2907,4.3015,4.2941,4.2947,4.2951,4.2954,4.3197,4.32,0,0,0,0,0,0,4.2546,4.2566,4.2721,4.2728,4.2625,4.2706,4.272,4.2756,4.2825,4.2833,4.278,4.2779,4.2888,4.29,4.2911,4.3016,4.2948,4.2954,4.2958,4.3195,4.3198,4.3201,0,0,0,0,0,0,4.2541,4.256,4.2716,4.2647,4.2667,4.2712,4.2753,4.2759,4.2787,4.2837,4.2845,4.2801,4.2887,4.2902,4.2981,4.302,4.2957,4.2963,4.3192,4.3196,4.3199,4.3223,0,0,0,0,0,0,4.2535,4.2558,4.2589,4.2648,4.2671,4.2784,4.2755,4.2763,4.2799,4.2797,4.2858,4.2866,4.2886,4.2972,4.2988,4.3028,4.2968,4.3189,4.3194,4.3198,4.3219,4.3227,4.3234,0,0,0,0,0,4.2528,4.259,4.259,4.2609,4.271,4.2786,4.2799,4.2821,4.2801,4.2834,4.2866,4.2864,4.3013,4.298,4.2998,4.304,4.3186,4.3192,4.3198,4.3216,4.3225,4.3234,0,0,0,0,0,0,4.2532,4.2597,4.2599,4.2682,4.2728,4.2786,4.2827,4.283,4.2883,4.288,4.2905,4.2919,4.2999,4.3027,4.2989,4.3126,4.3097,4.3107,4.3105,4.3114,4.3122,4.3114,4.2974,0,0,0,0,0,4.2543,4.2598,4.2652,4.272,4.2744,4.2782,4.2815,4.2829,4.2878,4.2897,4.2935,4.2984,4.3042,4.3079,4.3135,4.3223,4.3238,4.3261,4.3269,4.3275,4.3283,4.3336,4.3349,4.322,4.3219,4.3219,0,0,4.2566,4.2608,4.2641,4.2723,4.276,4.2819,4.2798,4.2859,4.2903,4.2907,4.2985,4.3015,4.3071,4.3156,4.3195,4.3182,4.3323,4.3282,4.3287,4.3292,4.3344,4.3356,4.3367,4.3223,4.3223,4.3222,0,0,4.2638,4.2674,4.2737,4.2776,4.2834,4.2859,4.2874,4.2933,4.2953,4.3032,4.3037,4.309,4.3188,4.3229,4.3263,4.3355,4.3356,4.3372,4.3412,4.3463,4.3474,4.3483,4.3519,4.3531,4.338,4.338,4.338,0,4.2659,4.2746,4.2768,4.2831,4.2869,4.2875,4.2941,4.2977,4.305,4.3077,4.3061,4.3188,4.3225,4.3322,4.3345,4.3371,4.3392,4.3366,4.347,4.348,4.3489,4.3523,4.3537,4.3382,4.3382,4.3382,4.3382,0,4.2771,4.2831,4.2875,4.2948,4.2989,4.3053,4.3087,4.3127,4.3138,4.3165,4.3248,4.3294,4.3361,4.3385,4.3395,4.3485,4.3475,4.3465,4.3437,4.3502,4.3536,4.3549,4.3385,4.3384,4.3384,4.3383,0,0,4.2847,4.2934,4.295,4.2984,4.3051,4.3099,4.3164,4.3231,4.3266,4.3317,4.3374,4.3459,4.3451,4.349,4.3505,4.3549,4.3624,4.3534,4.3536,4.3552,4.3731,4.374,4.3755,4.3625,4.3628,4.363,4.3727,0,4.2928,4.3045,4.3069,4.317,4.3229,4.3238,4.3295,4.3343,4.3372,4.3426,4.3458,4.3519,4.3502,4.3526,4.357,4.3606,4.3661,4.3599,4.3681,4.3684,4.3669,4.3772,4.3781,4.387,4.374,4.3742,4.3744,0,4.3038,4.3094,4.3201,4.3264,4.3289,4.334,4.3406,4.3457,4.3513,4.3531,4.3576,4.3587,4.3658,4.3626,4.3726,4.3683,4.3718,4.3741,4.3745,4.3755,4.3719,4.3787,4.3899,4.3914,4.3764,4.3762,4.3761,0,4.3088,4.3189,4.3268,4.3297,4.337,4.3407,4.3439,4.3493,4.3533,4.359,4.3617,4.3681,4.3717,4.3768,4.3798,4.3771,4.3897,4.3866,4.3916,4.3915,4.3943,4.3941,4.4064,4.3961,4.3961,4.3961,4.396,0,4.3177,4.3244,4.3292,4.334,4.3416,4.3444,4.3518,4.3551,4.3599,4.3656,4.3667,4.372,4.3755,4.3813,4.3837,4.3918,4.3933,4.3952,4.3958,4.3952,4.395,4.3977,4.3973,4.3964,4.3963,4.3963,4.3962,0,4.3246,4.328,4.3367,4.3431,4.3449,4.3502,4.3557,4.3606,4.3635,4.3707,4.3726,4.3772,4.3842,4.3877,4.3963,4.3979,4.4072,4.4073,4.4054,4.4057,4.4106,4.4102,4.4253,4.4276,4.4154,4.4155,4.4156,0,4.3302,4.3353,4.3423,4.3463,4.3496,4.3558,4.36,4.363,4.3674,4.3743,4.3785,4.3855,4.3914,4.4026,4.4068,4.4136,4.414,4.4188,4.415,4.4144,4.4145,4.4142,4.4149,4.4195,4.4196,4.4197,4.4198,0,4.3399,4.3414,4.3474,4.3541,4.359,4.3644,4.3697,4.3728,4.3768,4.3816,4.3889,4.3934,4.4024,4.4096,4.4167,4.4202,4.4208,4.421,4.4226,4.4222,4.421,4.4221,4.4076,4.4206,4.4206,4.4205,4.4205,4.4204,4.3465,4.3513,4.3571,4.3638,4.3682,4.3732,4.3782,4.3819,4.388,4.3956,4.397,4.4048,4.4106,4.4203,4.4241,4.4303,4.4293,4.4314,4.432,4.4326,4.4331,4.4198,4.4316,4.4316,4.4315,4.4315,4.4315,0,4.3566,4.3605,4.3666,4.3741,4.3795,4.3795,4.3855,4.3901,4.3969,4.4023,4.4081,4.4166,4.4237,4.4285,4.4358,4.4399,4.4404,4.4417,4.4415,4.4424,4.4334,4.4315,4.4412,4.4412,4.4412,4.4412,4.4412,4.4412,4.3625,4.3708,4.3731,4.3836,4.3874,4.3951,4.3986,4.4033,4.4077,4.4172,4.4231,4.4262,4.4315,4.4392,4.4458,4.447,4.4498,4.4512,4.4525,4.444,4.443,4.442,4.4403,4.4517,4.4517,4.4611,4.4612,4.4612]}]]